EDT,Max TemperatureF,Mean TemperatureF,Min TemperatureF,Max Dew PointF,MeanDew PointF,Min DewpointF,Max Humidity, Mean Humidity, Min Humidity, Max Sea Level PressureIn, Mean Sea Level PressureIn, Min Sea Level PressureIn, Max VisibilityMiles, Mean VisibilityMiles, Min VisibilityMiles, Max Wind SpeedMPH, Mean Wind SpeedMPH, Max Gust SpeedMPH,PrecipitationIn, CloudCover, Events, WindDirDegrees
2012-10-1,53,52,51,54,51,50,100,95,94,29.96,29.93,29.90,10,3,0,6,1,,0.40,8,Fog-Rain,153
2012-10-2,69,61,53,66,58,54,100,89,73,30.07,29.94,29.86,10,6,0,13,2,18,0.57,7,Fog-Rain,163
2012-10-3,69,63,57,59,56,54,94,80,60,30.26,30.17,30.06,10,10,10,7,2,,0.00,5,Rain,152
2012-10-4,68,62,53,55,48,45,88,64,43,30.32,30.29,30.26,10,10,4,16,4,22,0.00,2,,299
2012-10-5,69,58,48,52,48,45,93,71,43,30.31,30.21,30.11,10,10,5,7,1,,0.00,0,,148
2012-10-6,62,56,50,52,50,46,88,75,63,30.10,30.04,30.02,10,10,10,24,6,38,0.00,5,,299
2012-10-7,50,44,37,46,41,34,100,88,76,30.15,30.07,30.01,10,7,0,22,3,30,0.17,6,Fog-Rain,6
2012-10-8,41,39,37,41,36,34,100,89,81,30.22,30.16,30.12,10,6,0,5,1,,0.00,7,Fog,19
2012-10-9,53,47,41,45,42,39,100,88,62,30.16,30.12,30.09,10,6,0,6,1,,0.00,7,Fog,75
2012-10-10,53,47,41,43,40,34,93,74,62,30.18,30.08,30.04,10,10,10,26,9,40,0.00,6,,291
2012-10-11,59,47,35,43,35,28,87,63,38,30.29,30.23,30.15,10,10,10,22,6,32,0.00,0,,200
2012-10-12,62,56,50,39,36,30,58,50,39,30.35,30.26,30.21,10,10,10,20,11,28,0.00,2,,307
2012-10-13,55,45,35,41,37,30,93,71,51,30.47,30.38,30.33,10,10,7,8,2,,0.00,1,,156
2012-10-14,62,52,42,54,47,39,94,80,63,30.34,30.20,30.06,10,10,10,8,4,,0.00,3,,163
2012-10-15,62,54,46,55,45,34,94,68,39,30.06,29.92,29.83,10,9,1,30,8,40,0.20,5,Rain,275
2012-10-16,60,51,42,36,32,28,71,53,29,29.99,29.95,29.91,10,10,10,20,9,34,0.00,0,,311
2012-10-17,60,48,37,41,38,32,87,66,39,30.02,29.96,29.92,10,10,10,8,1,,0.00,0,,154
2012-10-18,55,50,46,52,47,37,94,83,66,29.92,29.86,29.81,10,9,1,9,3,18,0.00,6,,162
2012-10-19,60,53,46,37,28,19,62,38,20,29.82,29.78,29.71,10,10,10,16,6,24,0.00,1,,254
2012-10-20,51,46,42,34,32,28,70,56,41,29.99,29.86,29.79,10,10,10,16,8,29,0.00,4,,302
2012-10-21,60,50,39,37,33,28,81,57,31,30.19,30.11,30.00,10,10,10,14,5,18,0.00,0,,312
2012-10-22,69,55,41,45,41,36,81,56,35,30.28,30.23,30.18,10,10,10,9,3,,0.00,0,,204
2012-10-23,71,58,46,46,44,41,87,59,38,30.25,30.21,30.17,10,10,10,7,1,,0.00,1,,170
2012-10-24,71,60,48,50,43,36,87,59,27,30.27,30.22,30.18,10,10,5,6,2,,0.00,0,,151
2012-10-25,68,56,44,50,45,41,93,65,37,30.24,30.20,30.17,10,10,7,8,1,16,0.00,0,,149
2012-10-26,68,60,51,52,50,46,94,72,46,30.20,30.13,30.06,10,10,7,9,1,,0.00,5,,125
2012-10-27,62,55,46,52,48,43,88,79,59,30.06,29.93,29.85,10,10,7,12,3,16,0.00,7,,7
2012-10-28,51,42,33,43,39,30,87,79,66,29.88,29.79,29.73,10,10,4,23,8,36,0.03,8,Rain-Snow,329
2012-10-29,33,32,32,30,28,25,87,81,75,29.75,29.60,29.37,10,6,2,37,20,61,0.00,8,Snow,320
2012-10-30,33,32,32,28,26,23,87,77,69,29.54,29.39,29.26,10,4,1,43,28,70,0.00,8,Snow,306
2012-10-31,35,34,32,32,29,28,93,85,75,29.73,29.64,29.52,10,8,3,33,16,51,0.00,8,Rain-Snow,292